Weather History for Fort Lauderdale, FL

Change the Weather History Date:

Tuesday, September 10, 2013

  Actual Average Record
Temperature  
Mean Temperature 84 °F -  
Max Temperature 90 °F 92 °F 96 °F (1982)
Min Temperature 78 °F 73 °F 65 °F (1974)
Cooling Degree Days 18    
Growing Degree Days 34 (Base 50)    
Moisture  
Dew Point 74 °F    
Average Humidity 77    
Maximum Humidity 88    
Minimum Humidity 59    
Precipitation  
Precipitation 0.24 in - - ()
Sea Level Pressure  
Sea Level Pressure 30.02 in    
Wind  
Wind Speed 8 mph (ENE)    
Max Wind Speed 16 mph    
Max Gust Speed 22 mph    
Visibility 10 miles    
Events Rain    
Averages and records for this station are not official NWS values.
T = Trace of Precipitation, MM = Missing Value Source: NWS Daily Summary

Daily Weather History Graph

Daily Weather History Graph

Search for Another Location

Airport:

Trip Planner

Search our weather history database for the weather conditions in past years. The results will help you decide how hot, cold, wet, or windy it might be!

Date:

Astronomy

Sep. 10, 2013 Rise Set
Actual Time 7:04 AM EDT 7:30 PM EDT
Civil Twilight 6:41 AM EDT 7:53 PM EDT
Nautical Twilight 6:14 AM EDT 8:20 PM EDT
Astronomical Twilight 5:46 AM EDT 8:47 PM EDT
Moon 11:54 AM EDT (9/10) 11:06 PM EDT (9/10)
Length of Visible Light 13h 12m
Length of Day
12h 25m
Waxing Crescent, 28% of the Moon is Illuminated
Sep 10
Waxing Crescent
Sep 12
First Quarter
Sep 19
Full
Sep 26
Last Quarter
Oct 4
New

Hourly Weather History & Observations

Time (EDT) Temp. Heat Index Dew Point Humidity Pressure Visibility Wind Dir Wind Speed Gust Speed Precip Events Conditions
12:53 AM 78.1 °F - 73.9 °F 87% 29.98 in 10.0 mi North 3.5 mph - N/A   Clear
1:53 AM 78.1 °F - 73.9 °F 87% 29.99 in 10.0 mi NNE 4.6 mph - N/A   Scattered Clouds
2:53 AM 79.0 °F - 75.0 °F 88% 29.98 in 10.0 mi NE 4.6 mph - N/A   Partly Cloudy
3:53 AM 79.0 °F - 73.9 °F 84% 29.97 in 10.0 mi NE 4.6 mph - N/A   Partly Cloudy
4:53 AM 80.1 °F 84.5 °F 73.9 °F 81% 29.97 in 10.0 mi ENE 5.8 mph - N/A   Clear
5:53 AM 80.1 °F 84.2 °F 73.0 °F 79% 29.98 in 10.0 mi ENE 5.8 mph - N/A   Partly Cloudy
6:53 AM 80.1 °F 84.2 °F 73.0 °F 79% 29.99 in 10.0 mi East 6.9 mph - N/A   Scattered Clouds
7:53 AM 78.1 °F - 72.0 °F 81% 30.01 in 10.0 mi East 8.1 mph - 0.01 in Rain Light Rain
8:53 AM 84.0 °F 91.9 °F 75.0 °F 74% 30.03 in 10.0 mi East 11.5 mph - 0.00 in   Scattered Clouds
9:53 AM 84.9 °F 93.3 °F 75.0 °F 72% 30.04 in 10.0 mi ENE 12.7 mph - 0.01 in   Scattered Clouds
10:53 AM 88.0 °F 96.5 °F 73.9 °F 63% 30.05 in 10.0 mi East 8.1 mph 17.3 mph N/A   Scattered Clouds
11:53 AM 84.9 °F 90.7 °F 72.0 °F 65% 30.05 in 10.0 mi East 16.1 mph - N/A   Scattered Clouds
12:53 PM 89.1 °F 98.0 °F 73.9 °F 61% 30.04 in 10.0 mi ENE 16.1 mph 21.9 mph N/A   Scattered Clouds
1:53 PM 89.1 °F 97.0 °F 73.0 °F 59% 30.03 in 10.0 mi East 13.8 mph 20.7 mph N/A   Scattered Clouds
2:53 PM 88.0 °F 95.6 °F 73.0 °F 61% 30.01 in 10.0 mi East 15.0 mph 21.9 mph N/A   Scattered Clouds
3:53 PM 78.1 °F - 73.0 °F 84% 30.02 in 10.0 mi East 10.4 mph - 0.13 in Rain Heavy Rain
4:53 PM 81.0 °F 86.7 °F 75.0 °F 82% 30.01 in 10.0 mi East 16.1 mph - 0.03 in Rain Light Rain
5:53 PM 80.1 °F 85.4 °F 75.9 °F 87% 30.01 in 10.0 mi East 8.1 mph - 0.01 in Rain Light Rain
6:53 PM 82.9 °F 90.8 °F 75.9 °F 79% 30.03 in 10.0 mi East 9.2 mph - 0.00 in   Partly Cloudy
7:53 PM 82.0 °F 87.9 °F 73.9 °F 76% 30.02 in 10.0 mi ENE 8.1 mph - N/A   Partly Cloudy
8:53 PM 80.1 °F 84.2 °F 73.0 °F 79% 30.03 in 10.0 mi ENE 5.8 mph - 0.05 in   Clear
9:53 PM 82.0 °F 87.9 °F 73.9 °F 76% 30.04 in 10.0 mi ENE 10.4 mph - N/A   Mostly Cloudy
10:53 PM 81.0 °F 86.7 °F 75.0 °F 82% 30.04 in 10.0 mi East 11.5 mph - 0.00 in   Scattered Clouds
11:53 PM 80.1 °F 84.5 °F 73.9 °F 81% 30.04 in 10.0 mi ESE 11.5 mph - N/A   Partly Cloudy